Wind_Speed
32 29 29 29 27 27 19 27 29 21 23 21 14 13 11 7 5 7 4 4 6 6 7 10 12 15 16 16 17 16 15 15 17 19 19 19 17 18
33 31 30 27 24 24 28 29 24 21 24 22 18 13 12 7 7 7 4 5 5 5 7 10 12 14 16 15 15 15 14 15 16 18 18 16 16 17
35 30 26 20 24 29 34 32 31 23 26 25 21 13 13 9 7 5 4 6 4 6 8 11 12 12 13 14 14 14 14 15 15 17 17 17 16 16
30 29 24 25 27 29 31 32 31 18 22 25 19 16 14 12 7 5 2 6 10 7 9 11 11 10 10 12 14 14 14 14 15 16 16 16 16 17
31 29 26 30 29 27 27 27 27 21 19 20 19 17 13 12 10 6 6 9 9 8 8 10 11 15 12 12 14 14 14 14 15 16 17 16 16 17
26 29 32 31 31 29 28 29 27 26 23 21 19 17 13 14 10 7 6 5 8 8 10 11 12 14 15 15 15 15 15 16 16 17 17 17 17 17
26 29 30 33 33 30 29 29 26 29 26 23 22 20 16 14 17 18 12 9 11 7 7 8 10 8 14 17 14 15 15 16 17 18 18 18 19 17
31 31 31 34 34 32 31 28 27 30 31 26 23 23 22 18 14 15 17 12 10 8 7 12 8 8 14 15 11 15 15 16 17 18 18 18 17 16
33 35 36 35 34 35 33 29 27 26 25 25 23 21 19 17 13 12 11 13 16 10 7 10 8 10 11 12 9 14 15 14 15 16 17 18 17 15
33 34 35 34 34 33 30 29 28 26 23 20 18 16 15 15 14 11 10 10 12 9 8 10 10 11 11 10 8 14 16 17 16 15 16 17 18 18
34 34 32 31 32 32 30 31 30 28 26 22 18 16 15 13 12 12 11 11 6 8 5 6 8 7 6 5 8 11 16 17 18 15 16 18 18 19
34 33 32 29 31 29 31 32 31 29 26 23 20 17 16 14 13 12 13 12 14 12 7 7 6 6 1 7 8 11 15 16 17 15 17 19 16 21
38 36 33 30 26 31 30 29 27 25 24 22 20 18 16 15 14 12 12 14 14 15 7 6 6 6 5 8 3 9 13 16 16 15 18 18 14 15
39 38 37 35 32 34 33 29 27 25 24 22 20 19 18 16 13 13 13 13 13 9 7 6 8 8 7 6 3 10 9 14 11 15 17 17 13 14
38 40 39 33 35 36 33 30 27 26 25 23 20 19 17 17 14 13 13 12 12 9 8 7 8 7 7 5 7 9 8 13 10 17 17 16 14 13
39 40 33 37 36 39 35 31 27 25 25 22 20 19 18 14 13 13 12 13 11 9 8 7 7 6 7 6 6 4 9 12 16 16 16 15 13 10
41 38 38 37 39 42 37 33 29 27 25 23 22 21 18 15 15 13 12 9 6 4 6 6 5 5 3 4 6 9 13 14 16 16 17 16 14 14
42 41 43 42 42 44 41 35 31 31 28 25 25 22 18 16 14 12 13 11 7 6 9 9 9 6 5 11 12 13 15 14 16 16 16 18 18 17
42 44 45 42 42 41 40 37 35 33 29 28 26 23 19 16 16 15 13 11 10 10 11 13 12 8 8 8 8 12 15 17 18 19 18 19 20 19
42 44 41 38 37 36 37 35 36 33 29 29 27 23 21 20 19 18 15 14 14 12 14 14 11 12 12 11 13 9 8 14 20 21 22 19 19 20
41 38 37 36 36 36 35 33 33 32 29 30 27 26 25 24 23 20 18 15 14 14 14 12 15 16 14 9 6 6 11 13 15 21 19 23 25 28
40 37 36 34 35 35 31 30 30 29 28 30 28 28 26 25 24 20 21 19 18 18 12 13 17 13 6 5 6 11 10 10 12 12 11 14 21 23
41 37 33 33 34 34 32 31 32 32 32 31 30 28 26 24 24 20 20 18 13 13 16 15 10 8 6 6 9 10 8 10 12 17 16 14 16 13
Wind_Direction
199 196 193 194 190 178 170 184 188 168 186 200 206 211 225 220 230 255 319 324 307 313 329 335 337 334 341 343 341 341 346 353 6 4 4 2 6 8
196 193 198 198 191 205 186 187 192 202 179 204 213 215 209 201 190 235 261 300 288 304 338 334 335 338 341 345 344 345 349 353 0 7 3 357 5 4
192 194 197 205 226 208 196 192 192 199 190 177 208 206 193 208 198 220 249 271 299 337 332 332 332 341 344 346 353 354 351 354 2 7 0 1 359 359
188 191 205 215 222 207 200 198 199 194 193 180 199 193 186 195 201 181 96 275 299 315 327 334 324 337 345 353 2 2 1 5 8 6 2 2 1 0
196 204 224 225 209 198 196 191 189 183 192 207 188 182 194 191 171 198 193 225 290 313 320 339 351 346 359 10 5 3 6 12 13 12 10 9 5 8
208 224 220 206 196 199 195 195 190 180 188 193 180 181 193 176 173 202 188 229 255 313 331 326 349 345 346 7 355 358 1 6 9 12 11 12 9 10
216 216 207 199 199 201 200 198 191 183 182 188 181 177 195 187 190 190 174 239 265 277 299 262 313 336 325 331 334 349 358 2 6 8 9 8 7 12
218 212 202 201 201 199 198 197 192 187 188 192 188 188 193 198 195 193 198 215 260 263 233 237 245 253 283 306 319 341 349 358 1 3 6 9 7 8
213 210 206 205 204 200 196 194 192 192 196 201 198 201 195 207 204 211 204 204 226 242 244 242 262 296 300 299 298 339 344 353 355 359 4 5 8 5
209 211 210 207 200 198 195 196 193 193 196 201 203 204 203 204 208 214 211 210 215 221 218 220 270 291 302 293 296 338 348 350 353 0 4 4 5 9
210 210 209 206 200 194 194 196 195 194 196 199 198 198 199 201 210 212 203 213 224 240 221 251 269 300 308 315 319 331 343 345 350 357 358 0 1 2
206 209 206 203 200 199 201 201 200 200 199 194 195 198 198 205 213 216 212 193 202 235 234 245 275 296 265 284 308 323 331 336 343 350 353 356 2 350
208 205 201 196 195 210 204 205 208 202 197 195 195 199 201 203 208 211 206 217 218 221 229 255 257 251 231 232 271 302 316 324 334 341 346 354 359 352
206 204 203 189 199 207 204 205 204 200 196 196 196 200 201 206 205 206 212 221 229 235 233 246 250 248 251 234 241 261 302 315 320 322 342 349 357 358
207 210 205 202 201 195 202 208 202 198 196 198 201 204 207 206 202 205 214 218 224 231 233 237 246 256 254 234 264 286 313 317 285 320 341 345 358 355
207 207 207 202 199 196 198 206 207 202 200 199 202 207 214 210 202 214 215 217 222 219 226 245 252 256 263 252 279 287 290 305 314 328 336 342 351 339
202 203 198 195 197 195 201 202 203 202 199 196 202 214 215 212 213 215 216 219 217 259 279 279 275 272 305 323 309 303 303 312 315 330 332 338 341 332
200 199 197 199 202 201 205 202 202 203 202 199 206 215 216 210 210 215 214 213 198 197 237 263 275 275 280 274 285 288 301 306 321 331 332 330 334 338
205 202 199 201 203 208 210 209 204 206 206 204 208 213 210 209 205 218 213 207 195 197 232 236 251 238 227 227 267 283 301 315 325 331 336 334 331 336
204 200 200 202 205 209 215 212 207 209 207 206 208 208 205 207 206 213 217 212 204 209 218 237 247 243 241 236 255 289 302 310 323 330 336 333 334 338
204 204 203 202 206 212 214 214 211 213 211 207 207 206 207 206 215 212 212 220 203 207 221 225 240 252 267 261 288 313 280 303 319 328 333 338 334 331
204 204 206 208 208 207 210 212 211 213 210 209 209 208 213 209 216 211 214 216 224 217 211 225 243 262 254 258 270 273 301 310 327 321 326 321 323 324
205 204 207 210 212 208 209 212 214 214 216 214 210 213 216 212 208 214 217 230 224 205 207 221 241 254 255 256 282 311 304 309 318 310 319 312 314 324
Height
1477 1482 1486 1489 1493 1499 1501 1505 1506 1513 1522 1523 1523 1525 1527 1527 1526 1526 1526 1526 1528 1527 1526 1528 1525 1525 1520 1519 1519 1515 1512 1509 1508 1505 1502 1499 1497 1494
1471 1474 1481 1486 1487 1494 1499 1500 1502 1506 1510 1513 1516 1521 1523 1524 1526 1524 1524 1525 1526 1524 1524 1525 1524 1523 1521 1516 1516 1514 1511 1507 1506 1504 1500 1497 1494 1492
1465 1469 1477 1481 1483 1490 1494 1498 1500 1502 1507 1511 1514 1517 1521 1522 1524 1523 1521 1523 1524 1522 1522 1522 1522 1518 1516 1518 1515 1513 1510 1505 1503 1502 1498 1495 1493 1490
1458 1467 1471 1473 1479 1487 1490 1493 1498 1498 1501 1504 1510 1513 1516 1518 1522 1521 1521 1521 1521 1521 1522 1520 1524 1517 1514 1514 1514 1513 1509 1505 1502 1500 1496 1493 1491 1489
1454 1460 1462 1472 1478 1484 1487 1490 1495 1496 1500 1501 1505 1511 1514 1516 1518 1520 1524 1525 1522 1520 1520 1520 1521 1518 1514 1511 1513 1512 1509 1504 1501 1499 1496 1493 1490 1488
1453 1454 1463 1468 1473 1479 1484 1487 1493 1492 1495 1499 1502 1506 1511 1514 1514 1515 1517 1521 1518 1522 1520 1521 1519 1516 1509 1513 1513 1512 1509 1504 1500 1498 1495 1492 1490 1487
1449 1453 1458 1462 1468 1474 1479 1484 1489 1494 1493 1494 1497 1501 1505 1509 1510 1516 1516 1516 1518 1520 1522 1520 1520 1517 1512 1512 1513 1511 1508 1504 1500 1497 1494 1491 1488 1485
1444 1450 1456 1458 1466 1471 1474 1479 1482 1487 1490 1491 1494 1496 1500 1499 1505 1508 1511 1510 1512 1516 1520 1517 1517 1513 1511 1512 1513 1510 1507 1503 1499 1496 1493 1490 1487 1484
1439 1442 1448 1453 1461 1466 1470 1475 1479 1488 1487 1488 1488 1494 1497 1498 1499 1502 1504 1507 1507 1512 1514 1515 1512 1510 1511 1509 1511 1510 1506 1502 1499 1496 1492 1489 1486 1483
1436 1439 1444 1450 1456 1462 1466 1471 1475 1481 1484 1486 1489 1491 1493 1495 1495 1498 1500 1503 1504 1507 1509 1511 1509 1507 1508 1508 1509 1508 1505 1501 1498 1494 1491 1488 1485 1482
1432 1437 1441 1447 1453 1456 1460 1467 1470 1472 1476 1483 1485 1488 1490 1492 1495 1496 1495 1499 1499 1501 1502 1506 1504 1505 1506 1507 1508 1507 1504 1500 1497 1493 1490 1487 1484 1481
1426 1430 1437 1443 1451 1455 1458 1461 1465 1467 1471 1474 1479 1484 1485 1490 1492 1492 1495 1497 1497 1498 1498 1501 1501 1503 1504 1506 1507 1505 1503 1500 1496 1493 1489 1485 1483 1479
1419 1424 1430 1439 1444 1452 1456 1460 1464 1466 1469 1472 1474 1479 1483 1486 1488 1488 1492 1495 1492 1494 1493 1496 1498 1501 1502 1504 1505 1503 1501 1498 1495 1491 1487 1484 1481 1479
1414 1420 1424 1431 1441 1445 1450 1457 1459 1462 1465 1470 1471 1476 1478 1481 1484 1487 1488 1492 1492 1492 1491 1491 1496 1498 1499 1501 1502 1500 1499 1496 1493 1489 1485 1483 1480 1478
1411 1416 1421 1427 1437 1438 1446 1450 1456 1458 1459 1465 1470 1474 1477 1477 1478 1484 1485 1490 1491 1488 1488 1489 1494 1495 1495 1496 1497 1497 1495 1492 1489 1486 1483 1480 1477 1476
1407 1411 1419 1423 1429 1435 1439 1445 1451 1455 1455 1459 1466 1471 1473 1476 1475 1481 1481 1486 1487 1486 1487 1488 1492 1493 1493 1492 1493 1493 1492 1489 1486 1483 1480 1477 1475 1474
1402 1408 1412 1417 1422 1430 1435 1437 1445 1451 1453 1456 1460 1465 1470 1472 1473 1476 1479 1482 1481 1482 1485 1487 1489 1490 1490 1489 1490 1490 1488 1485 1482 1479 1477 1474 1472 1470
1397 1400 1405 1409 1417 1422 1429 1433 1440 1445 1449 1452 1457 1460 1465 1468 1469 1473 1476 1477 1476 1480 1486 1488 1487 1488 1489 1487 1487 1487 1486 1483 1479 1477 1474 1470 1468 1466
1391 1395 1399 1404 1412 1418 1424 1433 1434 1441 1444 1449 1452 1457 1460 1464 1466 1469 1470 1472 1472 1477 1483 1485 1485 1486 1484 1484 1484 1483 1481 1479 1476 1473 1471 1468 1465 1462
1387 1390 1394 1402 1409 1414 1422 1429 1433 1435 1439 1444 1448 1452 1456 1460 1462 1465 1467 1469 1469 1473 1479 1481 1481 1481 1479 1478 1479 1481 1478 1475 1473 1469 1466 1464 1462 1460
1382 1387 1393 1398 1406 1411 1418 1424 1429 1429 1435 1440 1443 1448 1453 1454 1457 1462 1463 1464 1466 1472 1473 1476 1477 1478 1478 1476 1475 1475 1475 1473 1471 1467 1464 1461 1458 1454
1379 1384 1391 1396 1403 1407 1413 1419 1424 1426 1431 1435 1439 1443 1446 1449 1453 1457 1458 1458 1462 1468 1470 1472 1472 1473 1474 1474 1473 1472 1470 1470 1469 1467 1464 1462 1458 1452
1377 1383 1388 1394 1400 1405 1409 1413 1418 1422 1426 1430 1434 1436 1439 1444 1450 1452 1453 1455 1461 1463 1466 1468 1469 1469 1470 1471 1470 1468 1467 1466 1465 1462 1460 1458 1456 1453